Location: Clermont
(50.2608°N, 4.3172°E)
Time: 21:55:45
(UTC+00:00)

ERBS - Pass Details

Date: 13 August 2020
Orbit: 412 x 420 km, 57.0° (Epoch: 22 September)

Event Time Altitude Azimuth Distance (km) Brightness Sun altitude
Rises 21:23:12 0° 297° (WNW) 2,359 7.2 -18.1°
Reaches altitude 10° 21:25:29 10° 310° (NW) 1,493 6.2 -18.3°
Maximum altitude 21:28:25 28° 11° (NNE) 817 4.1 -18.6°
Enters shadow 21:30:24 16° 62° (ENE) 1,175 4.4 -18.8°
